| time (UTC) | temp F | wind direction | speed knots | gust knots | rain 1hr in | rain 24hr in | rain mn in | humidity % | barometer mb |
| 20260903053026 | 56 | 229 | 2.6 | 7.8 | 0.00 | 0.00 | 0.00 | 76 | 1009.9 |
| 20260903051525 | 56 | 238 | 4.3 | 10.4 | 0.00 | 0.00 | 0.00 | 76 | 1009.9 |
| 20260903050023 | 55 | 231 | 4.3 | 7.8 | 0.00 | 0.00 | 0.00 | 77 | 1010.0 |
| 20260903044521 | 55 | 4 | 3.5 | 7.8 | 0.00 | 0.00 | 0.00 | 77 | 1010.1 |
| 20260903043019 | 55 | 264 | 1.7 | 4.3 | 0.00 | 0.00 | 0.00 | 78 | 1010.1 |
| 20260903041518 | 55 | 271 | 2.6 | 7.8 | 0.00 | 0.00 | 0.00 | 76 | 1010.2 |
| 20260903040017 | 55 | 234 | 1.7 | 7.0 | 0.00 | 0.00 | 0.00 | 75 | 1010.4 |
| 20260903034517 | 55 | 4 | 3.5 | 9.6 | 0.00 | 0.00 | 0.00 | 73 | 1010.3 |
| 20260903033016 | 55 | 240 | 3.5 | 10.4 | 0.00 | 0.00 | 0.00 | 72 | 1010.4 |
| 20260903031512 | 55 | 264 | 5.2 | 14.8 | 0.00 | 0.00 | 0.00 | 71 | 1010.5 |
| 20260903030012 | 55 | 214 | 3.5 | 8.7 | 0.00 | 0.00 | 0.00 | 71 | 1010.6 |
| 20260903024509 | 55 | 233 | 6.1 | 13.0 | 0.00 | 0.00 | 0.00 | 71 | 1010.6 |
| 20260903023009 | 55 | 238 | 3.5 | 13.0 | 0.00 | 0.00 | 0.00 | 69 | 1010.6 |
| 20260903021509 | 55 | 251 | 6.1 | 11.3 | 0.00 | 0.00 | 0.00 | 69 | 1010.7 |
| 20260903020006 | 55 | 238 | 5.2 | 12.2 | 0.00 | 0.00 | 0.00 | 69 | 1010.8 |
| 20260903014501 | 56 | 240 | 4.3 | 13.0 | 0.00 | 0.00 | 0.00 | 70 | 1010.9 |
| 20260903013101 | 56 | 218 | 4.3 | 12.2 | 0.00 | 0.00 | 0.00 | 71 | 1011.0 |
| 20260903011604 | 56 | 223 | 5.2 | 13.9 | 0.00 | 0.00 | 0.00 | 69 | 1011.0 |
| 20260903010057 | 56 | 243 | 7.0 | 17.4 | 0.00 | 0.00 | 0.00 | 69 | 1011.0 |
| 20260903004556 | 56 | 286 | 5.2 | 13.9 | 0.00 | 0.00 | 0.00 | 70 | 1011.1 |
| 20260903003054 | 56 | 266 | 7.8 | 13.0 | 0.00 | 0.00 | 0.00 | 69 | 1011.1 |
| 20260903001553 | 56 | 271 | 6.1 | 13.0 | 0.00 | 0.00 | 0.00 | 69 | 1011.1 |
| 20260903000052 | 56 | 258 | 4.3 | 17.4 | 0.00 | 0.00 | 0.00 | 70 | 1011.2 |
| 20260902234603 | 56 | 240 | 5.2 | 14.8 | 0.00 | 0.00 | 0.00 | 70 | 1011.2 |
| 20260902233051 | 56 | 246 | 5.2 | 13.9 | 0.00 | 0.00 | 0.00 | 70 | 1011.2 |
| 20260902231549 | 56 | 224 | 5.2 | 16.5 | 0.00 | 0.00 | 0.00 | 70 | 1011.1 |
| 20260902230049 | 57 | 251 | 8.7 | 20.9 | 0.00 | 0.00 | 0.00 | 69 | 1011.2 |
| 20260902224544 | 57 | 271 | 5.2 | 12.2 | 0.00 | 0.00 | 0.00 | 70 | 1011.3 |
| 20260902223043 | 57 | 277 | 5.2 | 20.0 | 0.00 | 0.00 | 0.00 | 69 | 1011.5 |
| 20260902221541 | 57 | 281 | 6.1 | 18.2 | 0.00 | 0.00 | 0.00 | 69 | 1011.4 |
| 20260902220040 | 57 | 233 | 7.0 | 14.8 | 0.00 | 0.00 | 0.00 | 70 | 1011.4 |
| 20260902214536 | 57 | 248 | 6.1 | 13.9 | 0.00 | 0.00 | 0.00 | 71 | 1011.4 |
| 20260902213035 | 57 | 236 | 8.7 | 19.1 | 0.00 | 0.00 | 0.00 | 70 | 1011.4 |
| 20260902211533 | 57 | 244 | 7.8 | 15.6 | 0.00 | 0.00 | 0.00 | 69 | 1011.5 |
| 20260902210036 | 58 | 263 | 7.8 | 20.0 | 0.00 | 0.00 | 0.00 | 70 | 1011.6 |
| 20260902204529 | 58 | 258 | 7.8 | 20.9 | 0.00 | 0.00 | 0.00 | 71 | 1011.5 |
| 20260902203028 | 58 | 268 | 7.0 | 14.8 | 0.00 | 0.00 | 0.00 | 71 | 1011.5 |
| 20260902201528 | 58 | 298 | 6.1 | 13.9 | 0.00 | 0.00 | 0.00 | 74 | 1011.4 |
| 20260902200026 | 58 | 239 | 7.8 | 15.6 | 0.00 | 0.00 | 0.00 | 73 | 1011.5 |
| 20260902194526 | 58 | 236 | 8.7 | 15.6 | 0.00 | 0.00 | 0.00 | 72 | 1011.4 |
| 20260902193023 | 58 | 233 | 7.8 | 19.1 | 0.00 | 0.00 | 0.00 | 72 | 1011.6 |
| 20260902191522 | 58 | 234 | 5.2 | 16.5 | 0.00 | 0.00 | 0.00 | 71 | 1011.3 |
| 20260902190025 | 58 | 4 | 9.6 | 17.4 | 0.00 | 0.00 | 0.00 | 72 | 1011.4 |
| 20260902184520 | 59 | 249 | 8.7 | 19.1 | 0.00 | 0.00 | 0.00 | 71 | 1011.3 |
| 20260902183052 | 59 | 244 | 7.8 | 19.1 | 0.00 | 0.00 | 0.00 | 73 | 1011.1 |
| 20260902183032 | 59 | 249 | 8.7 | 19.1 | 0.00 | 0.00 | 0.00 | 73 | 1011.2 |
| 20260902181614 | 59 | 246 | 7.8 | 16.5 | 0.00 | 0.00 | 0.00 | 74 | 1011.2 |
| 20260902180044 | 59 | 248 | 5.2 | 13.9 | 0.00 | 0.00 | 0.00 | 73 | 1011.2 |
| 20260902174601 | 59 | 250 | 7.0 | 15.6 | 0.00 | 0.00 | 0.00 | 73 | 1011.1 |
| 20260902173100 | 60 | 220 | 7.0 | 14.8 | 0.00 | 0.00 | 0.00 | 73 | 1011.3 |
| 20260902171608 | 61 | 256 | 5.2 | 13.0 | 0.00 | 0.00 | 0.00 | 72 | 1011.2 |
| 20260902170057 | 61 | 236 | 4.3 | 13.9 | 0.00 | 0.00 | 0.00 | 72 | 1011.2 |
| 20260902164559 | 61 | 225 | 6.1 | 13.0 | 0.00 | 0.00 | 0.00 | 72 | 1011.2 |
| 20260902163057 | 62 | 271 | 3.5 | 13.0 | 0.00 | 0.00 | 0.00 | 70 | 1011.2 |
| 20260902161556 | 62 | 250 | 5.2 | 13.9 | 0.00 | 0.00 | 0.00 | 70 | 1011.4 |
| 20260902160114 | 62 | 211 | 6.1 | 14.8 | 0.00 | 0.00 | 0.00 | 71 | 1011.4 |
| 20260902154559 | 63 | 266 | 5.2 | 13.9 | 0.00 | 0.00 | 0.00 | 70 | 1011.4 |
| 20260902153057 | 64 | 4 | 7.8 | 14.8 | 0.00 | 0.00 | 0.00 | 68 | 1011.2 |
| 20260902151603 | 64 | 229 | 6.1 | 14.8 | 0.00 | 0.00 | 0.00 | 67 | 1011.2 |
| 20260902150053 | 65 | 224 | 3.5 | 11.3 | 0.00 | 0.00 | 0.00 | 65 | 1011.2 |
| 20260902144554 | 65 | 4 | 7.0 | 14.8 | 0.00 | 0.00 | 0.00 | 61 | 1011.4 |
| 20260902143052 | 65 | 225 | 2.6 | 10.4 | 0.00 | 0.00 | 0.00 | 65 | 1011.3 |
| 20260902141555 | 64 | 4 | 7.8 | 14.8 | 0.00 | 0.00 | 0.00 | 68 | 1011.1 |
| 20260902140052 | 65 | 236 | 7.0 | 13.0 | 0.00 | 0.00 | 0.00 | 71 | 1011.2 |
| 20260902134552 | 64 | 274 | 5.2 | 13.0 | 0.00 | 0.00 | 0.00 | 69 | 1011.1 |
| 20260902133103 | 65 | 203 | 4.3 | 12.2 | 0.00 | 0.00 | 0.00 | 71 | 1011.1 |
| 20260902131552 | 65 | 217 | 1.7 | 7.8 | 0.00 | 0.00 | 0.00 | 72 | 1011.2 |
| 20260902130050 | 65 | 250 | 2.6 | 9.6 | 0.00 | 0.00 | 0.00 | 70 | 1011.2 |
| 20260902124549 | 65 | 235 | 5.2 | 12.2 | 0.00 | 0.00 | 0.00 | 69 | 1011.3 |
| 20260902123052 | 67 | 225 | 2.6 | 8.7 | 0.00 | 0.00 | 0.00 | 68 | 1011.2 |
| 20260902121546 | 66 | 4 | 3.5 | 8.7 | 0.00 | 0.00 | 0.00 | 69 | 1011.4 |
| 20260902120047 | 65 | 217 | 6.1 | 9.6 | 0.00 | 0.00 | 0.00 | 69 | 1011.7 |
| 20260902114553 | 64 | 238 | 3.5 | 10.4 | 0.00 | 0.00 | 0.00 | 67 | 1011.7 |
| 20260902113045 | 65 | 251 | 7.0 | 8.7 | 0.00 | 0.00 | 0.00 | 66 | 1011.7 |
| 20260902111548 | 64 | 286 | 1.7 | 12.2 | 0.00 | 0.00 | 0.00 | 65 | 1011.8 |
| 20260902110058 | 64 | 213 | 4.3 | 12.2 | 0.00 | 0.00 | 0.00 | 63 | 1011.7 |
| 20260902104545 | 65 | 248 | 4.3 | 12.2 | 0.00 | 0.00 | 0.00 | 59 | 1011.8 |
| 20260902103043 | 66 | 244 | 5.2 | 10.4 | 0.00 | 0.00 | 0.00 | 59 | 1011.7 |
| 20260902101542 | 66 | 234 | 7.8 | 12.2 | 0.00 | 0.00 | 0.00 | 59 | 1011.7 |
| 20260902100040 | 65 | 227 | 5.2 | 13.0 | 0.00 | 0.00 | 0.00 | 62 | 1011.8 |
| 20260902094543 | 64 | 243 | 7.8 | 13.0 | 0.00 | 0.00 | 0.00 | 62 | 1011.8 |
| 20260902093040 | 63 | 248 | 7.0 | 13.0 | 0.00 | 0.00 | 0.00 | 63 | 1011.8 |
| 20260902091537 | 64 | 236 | 4.3 | 13.0 | 0.00 | 0.00 | 0.00 | 66 | 1011.8 |
| 20260902090035 | 64 | 227 | 5.2 | 10.4 | 0.00 | 0.00 | 0.00 | 63 | 1011.6 |
| 20260902084540 | 64 | 228 | 4.3 | 15.6 | 0.00 | 0.00 | 0.00 | 67 | 1011.5 |
| 20260902083030 | 64 | 330 | 6.1 | 13.9 | 0.00 | 0.00 | 0.00 | 65 | 1011.4 |
| 20260902081528 | 63 | 4 | 7.0 | 17.4 | 0.00 | 0.00 | 0.00 | 68 | 1011.4 |
| 20260902080025 | 63 | 4 | 7.8 | 15.6 | 0.00 | 0.00 | 0.00 | 69 | 1011.3 |
| 20260902074522 | 63 | 281 | 5.2 | 16.5 | 0.00 | 0.00 | 0.00 | 71 | 1011.2 |
| 20260902073018 | 61 | 4 | 7.0 | 15.6 | 0.00 | 0.00 | 0.00 | 78 | 1011.0 |
| 20260902071521 | 61 | 205 | 5.2 | 13.0 | 0.00 | 0.00 | 0.00 | 83 | 1010.9 |
| 20260902070015 | 62 | 4 | 7.8 | 15.6 | 0.00 | 0.00 | 0.00 | 86 | 1010.8 |
| 20260902064523 | 62 | 4 | 7.8 | 17.4 | 0.00 | 0.01 | 0.00 | 86 | 1010.7 |
| 20260902063024 | 61 | 4 | 6.1 | 13.9 | 0.00 | 0.01 | 0.00 | 88 | 1010.6 |
| 20260902061512 | 61 | 4 | 7.8 | 13.0 | 0.00 | 0.01 | 0.00 | 88 | 1010.7 |
| 20260902060009 | 61 | 217 | 7.8 | 14.8 | 0.00 | 0.01 | 0.00 | 89 | 1010.6 |
| 20260902054513 | 60 | 236 | 7.0 | 13.0 | 0.00 | 0.01 | 0.00 | 89 | 1010.6 |